Location: Clermont
(50.2608°N, 4.3172°E)
Time: 05:53:29
(UTC+00:00)

CARTOSAT-1 - Pass Details

Date: 13 August 2020
Orbit: 616 x 619 km, 97.8° (Epoch: 23 September)

Event Time Altitude Azimuth Distance (km) Brightness Sun altitude
Exits shadow 21:44:00 27° 209° (SSW) 1,198 4.7 -20.0°
Maximum altitude 21:45:52 43° 262° (W) 883 4.5 -20.1°
Drops below altitude 10° 21:50:01 10° 334° (NNW) 1,999 7.4 -20.5°
Sets 21:52:19 0° 341° (NNW) 2,910 8.5 -20.7°
